Location: Gazon
(48.1318°N, 1.2708°W)
Time: 01:42:01
(UTC+00:00)

Meteor 1-12 Rocket - Pass Details

Date: 18 September 2020
Orbit: 854 x 927 km, 81.2° (Epoch: 29 October)

Event Time Altitude Azimuth Distance (km) Brightness Sun altitude
Rises 19:49:57 0° 192° (SSW) 3,538 7.3 -17.0°
Reaches altitude 10° 19:52:26 10° 193° (SSW) 2,592 6.6 -17.4°
Maximum altitude 19:58:21 83° 281° (W) 913 4.4 -18.3°
Drops below altitude 10° 20:04:13 10° 10° (N) 2,561 6.9 -19.2°
Sets 20:06:39 0° 12° (NNE) 3,494 7.6 -19.5°
